Terug naar catalogus

BEIDOU 3M1

ActiefNavigatieMEO
NORAD 43001·PAYLOAD·🇨🇳 China

Gelanceerd Nov 5, 2017 vanaf Xichang Satellite Launch Center

Loading…

Volgende Passages (komende 24 uur)

TLE

VersSource: CelesTrak SupGP

Epoch: Sep 15, 2026, 00:00 UTC

1 43001C 17069A   26258.00000000  .00000000  00000+0  00000+0 0  2580
2 43001  56.7747  60.1312 0007134 320.3881 170.5998  1.86231298    19

Volg BEIDOU 3M1 in realtime met AllMySat

Download on the App Store